Location: Austin
(30.3000°N, 97.7500°W)
Time: 11:28:00
(UTC-05:00)

COSMOS 2428 - Pass Details

Date: 26 May 2023
Orbit: 844 x 857 km, 70.9° (Epoch: 31 May)

Event Time Altitude Azimuth Distance (km) Brightness Sun altitude
Rises 20:50:15 0° 168° (SSE) 3,400 5.5 -5.7°
Reaches altitude 10° 20:53:06 10° 155° (SSE) 2,470 4.6 -6.3°
Maximum altitude 20:57:37 25° 102° (ESE) 1,659 3.7 -7.1°
Drops below altitude 10° 21:02:10 10° 49° (NE) 2,487 5.0 -8.0°
Sets 21:05:01 0° 36° (NE) 3,429 5.8 -8.5°
